THORAD AGENA D DEB, 42538

Orbit data source: Space-Track

THORAD AGENA D DEB, 42538 is space debris in SSO originally from a launch on Wed, 08 Apr 1970 UTC launched from the Air Force Western Test Range (AFWTR). Debris objects in space refer to the collection of defunct objects orbiting the Earth. Examples of debris include non-operational satellites, rocket bodies, and fragments generated from explosions, collisions, or faulty payload assembly.

Loading next visibility...
Identifier
42538, 1970-025SU
Orbit
SSO
Country
Flag of USUS
Related business
Manufacturer
Unknown
Mission
Spacecraft
Bus & Motor
Unknown
Mass
Unknown
Launch date (UTC)
1970-04-08 (56 years ago)
Launch vehicle
Unknown
Launch site
Air Force Western Test Range (AFWTR)
Object type
Payload
Rocket body
Debris
Shape & HBR
Unknown shape, 0.1 m
Radar Cross Section
Small (<0.1 m²)

Expand to show TLE details & history
Last TLE update: 2 days ago

TLE from 2 days ago
0 THORAD AGENA D DEB
1 42538U 70025SU  25285.73363782  .00000101  00000-0  21662-3 0  9999
2 42538 100.1733 293.1375 0000331 144.4301 215.6857 13.54612589587663
Epoch: 2025-10-12T17:36Z
TLE epoch observation values (Epoch: 2025-10-12T17:36:26.307Z)
Latitude
0.00004°
Longitude
7.48135°
Altitude
1,058.311 km
Speed
7.323 km/s
True Right ascension
19h 32m 32s
True Declination
0° 00' 00"
Sunlit
Object was in daylight at epoch
Visualization orbit readout
Latitude
Unknown
Longitude
Unknown
Altitude
Unknown
Speed
Unknown
Apparent Right ascension
Unknown
Apparent Declination
Unknown
Sunlit
N/A
Visualization observer readout
Local Sidereal Time
09:02:44
Azimuth
Unknown
Elevation
Unknown
Doppler factor
Unknown
Orbital elements
Apogee altitude
1,052.902 km
Perigee altitude
1,052.41 km
Semi-major axis
7,430.793 km
Eccentricity
0.00003
Inclination
100.1733°
RAAN
293.1375°
Arg. of periapsis
144.4301°
True anomaly
215.68349°
Mean anomaly
215.6857°
Eccentric anomaly
215.68459°
Mean motion
3.38837 °/min
Orbital period
106.25 mins
BSTAR
0.00021662
Loading maneuver chart data...
Computing Atmospheric mass density...

Documentation

Showing up to 5 results
|